Time,TemperatureF,DewpointF,PressureIn,WindDirection,WindDirectionDegrees,WindSpeedMPH,WindSpeedGustMPH,Humidity,HourlyPrecipIn,Conditions,Clouds,dailyrainin,SoftwareType,DateUTC
2013-02-11 00:00:00,37.8,0.0,29.94,North,0,0.0,0.0,0,0.00,,,0.17,WUHU216HW,2013-02-11 05:00:00,
2013-02-11 00:05:00,38.0,0.0,29.94,North,0,0.0,0.0,0,0.00,,,0.00,WUHU216HW,2013-02-11 05:05:00,
2013-02-11 00:10:00,38.2,0.0,29.93,North,0,0.0,0.0,0,0.00,,,0.00,WUHU216HW,2013-02-11 05:10:00,
2013-02-11 00:15:00,38.2,0.0,29.93,North,0,0.0,0.0,0,0.00,,,0.00,WUHU216HW,2013-02-11 05:15:00,
2013-02-11 00:20:00,38.2,0.0,29.93,North,0,0.0,0.0,0,0.00,,,0.00,WUHU216HW,2013-02-11 05:20:00,
2013-02-11 00:25:00,38.3,0.0,29.92,North,0,0.0,0.0,0,0.00,,,0.00,WUHU216HW,2013-02-11 05:25:00,
2013-02-11 00:30:00,38.5,0.0,29.92,North,0,0.0,0.0,0,0.00,,,0.00,WUHU216HW,2013-02-11 05:30:00,
2013-02-11 00:35:00,38.5,0.0,29.92,North,0,0.0,0.0,0,0.00,,,0.00,WUHU216HW,2013-02-11 05:35:00,
2013-02-11 00:40:00,38.5,0.0,29.92,North,0,0.0,0.0,0,0.00,,,0.00,WUHU216HW,2013-02-11 05:40:00,
2013-02-11 00:46:00,38.5,0.0,29.92,North,0,0.0,0.0,0,0.00,,,0.00,WUHU216HW,2013-02-11 05:46:00,
2013-02-11 00:51:00,38.9,0.0,29.92,North,0,0.0,0.0,0,0.00,,,0.00,WUHU216HW,2013-02-11 05:51:00,
2013-02-11 00:56:00,38.9,0.0,29.92,North,0,0.0,0.0,0,0.00,,,0.00,WUHU216HW,2013-02-11 05:56:00,
2013-02-11 01:01:00,38.9,0.0,29.92,North,0,0.0,0.0,0,0.00,,,0.00,WUHU216HW,2013-02-11 06:01:00,
2013-02-11 01:06:00,39.1,0.0,29.92,North,0,0.0,0.0,0,0.00,,,0.00,WUHU216HW,2013-02-11 06:06:00,
2013-02-11 01:11:00,39.2,0.0,29.92,North,0,0.0,0.0,0,0.00,,,0.00,WUHU216HW,2013-02-11 06:11:00,
2013-02-11 01:16:00,39.2,0.0,29.93,North,0,0.0,0.0,0,0.00,,,0.00,WUHU216HW,2013-02-11 06:16:00,
2013-02-11 01:21:00,39.4,0.0,29.93,North,0,0.0,0.0,0,0.00,,,0.00,WUHU216HW,2013-02-11 06:21:00,
2013-02-11 01:26:00,39.6,0.0,29.93,North,0,0.0,0.0,0,0.00,,,0.00,WUHU216HW,2013-02-11 06:26:00,
2013-02-11 01:31:00,39.8,0.0,29.93,North,0,0.0,0.0,0,0.00,,,0.00,WUHU216HW,2013-02-11 06:31:00,
2013-02-11 01:36:00,39.8,0.0,29.93,North,0,0.0,0.0,0,0.00,,,0.00,WUHU216HW,2013-02-11 06:36:00,
2013-02-11 01:41:00,40.0,0.0,29.93,North,0,0.0,0.0,0,0.00,,,0.00,WUHU216HW,2013-02-11 06:41:00,
2013-02-11 01:46:00,40.0,0.0,29.93,North,0,0.0,0.0,0,0.00,,,0.00,WUHU216HW,2013-02-11 06:46:00,
2013-02-11 01:51:00,40.1,0.0,29.93,North,0,0.0,0.0,0,0.00,,,0.00,WUHU216HW,2013-02-11 06:51:00,
2013-02-11 01:56:00,40.1,0.0,29.92,North,0,0.0,0.0,0,0.00,,,0.00,WUHU216HW,2013-02-11 06:56:00,
2013-02-11 02:01:00,40.0,0.0,29.91,North,0,0.0,0.0,0,0.00,,,0.00,WUHU216HW,2013-02-11 07:01:00,
2013-02-11 02:06:00,39.6,0.0,29.92,North,0,0.0,0.0,0,0.00,,,0.00,WUHU216HW,2013-02-11 07:06:00,
2013-02-11 02:11:00,39.4,0.0,29.92,North,0,0.0,0.0,0,0.00,,,0.00,WUHU216HW,2013-02-11 07:11:00,
2013-02-11 02:16:00,39.2,0.0,29.93,North,0,0.0,0.0,0,0.00,,,0.00,WUHU216HW,2013-02-11 07:16:00,
2013-02-11 02:21:00,39.2,0.0,29.93,North,0,0.0,0.0,0,0.00,,,0.00,WUHU216HW,2013-02-11 07:21:00,
2013-02-11 02:26:00,39.2,0.0,29.92,North,0,0.0,0.0,0,0.00,,,0.00,WUHU216HW,2013-02-11 07:26:00,
2013-02-11 02:31:00,39.1,0.0,29.92,North,0,0.0,0.0,0,0.00,,,0.00,WUHU216HW,2013-02-11 07:31:00,
2013-02-11 02:36:00,39.1,0.0,29.92,North,0,0.0,0.0,0,0.00,,,0.00,WUHU216HW,2013-02-11 07:36:00,
2013-02-11 02:41:00,39.1,0.0,29.92,North,0,0.0,0.0,0,0.00,,,0.00,WUHU216HW,2013-02-11 07:41:00,
2013-02-11 02:46:00,38.9,0.0,29.91,North,0,0.0,0.0,0,0.00,,,0.00,WUHU216HW,2013-02-11 07:46:00,
2013-02-11 02:51:00,38.9,0.0,29.91,North,0,0.0,0.0,0,0.00,,,0.00,WUHU216HW,2013-02-11 07:51:00,
2013-02-11 02:56:00,39.1,0.0,29.90,North,0,0.0,0.0,0,0.00,,,0.00,WUHU216HW,2013-02-11 07:56:00,
2013-02-11 03:01:00,38.9,0.0,29.90,North,0,0.0,0.0,0,0.00,,,0.00,WUHU216HW,2013-02-11 08:01:00,
2013-02-11 03:06:00,38.9,0.0,29.88,North,0,0.0,0.0,0,0.00,,,0.00,WUHU216HW,2013-02-11 08:06:00,
2013-02-11 03:11:00,38.9,0.0,29.89,North,0,0.0,0.0,0,0.00,,,0.00,WUHU216HW,2013-02-11 08:11:00,
2013-02-11 03:16:00,38.7,0.0,29.89,North,0,0.0,0.0,0,0.00,,,0.00,WUHU216HW,2013-02-11 08:16:00,
2013-02-11 03:21:00,38.7,0.0,29.88,North,0,0.0,0.0,0,0.00,,,0.00,WUHU216HW,2013-02-11 08:21:00,
2013-02-11 03:26:00,38.7,0.0,29.89,North,0,0.0,0.0,0,0.00,,,0.00,WUHU216HW,2013-02-11 08:26:00,
2013-02-11 03:31:00,38.7,0.0,29.88,North,0,0.0,0.0,0,0.00,,,0.00,WUHU216HW,2013-02-11 08:31:00,
2013-02-11 03:36:00,38.7,0.0,29.88,North,0,0.0,0.0,0,0.00,,,0.00,WUHU216HW,2013-02-11 08:36:00,
2013-02-11 03:41:00,38.7,0.0,29.88,North,0,0.0,0.0,0,0.00,,,0.00,WUHU216HW,2013-02-11 08:41:00,
2013-02-11 03:46:00,38.7,0.0,29.88,North,0,0.0,0.0,0,0.00,,,0.00,WUHU216HW,2013-02-11 08:46:00,
2013-02-11 03:51:00,38.7,0.0,29.88,North,0,0.0,0.0,0,0.00,,,0.00,WUHU216HW,2013-02-11 08:51:00,
2013-02-11 03:56:00,38.9,0.0,29.87,North,0,0.0,0.0,0,0.00,,,0.00,WUHU216HW,2013-02-11 08:56:00,
2013-02-11 04:01:00,38.7,0.0,29.87,North,0,0.0,0.0,0,0.00,,,0.00,WUHU216HW,2013-02-11 09:01:00,
2013-02-11 04:06:00,38.5,0.0,29.87,North,0,0.0,0.0,0,0.00,,,0.00,WUHU216HW,2013-02-11 09:06:00,
2013-02-11 04:11:00,38.5,0.0,29.87,North,0,0.0,0.0,0,0.00,,,0.00,WUHU216HW,2013-02-11 09:11:00,
2013-02-11 04:16:00,38.5,0.0,29.87,North,0,0.0,0.0,0,0.00,,,0.00,WUHU216HW,2013-02-11 09:16:00,
2013-02-11 04:21:00,38.5,0.0,29.87,North,0,0.0,0.0,0,0.00,,,0.00,WUHU216HW,2013-02-11 09:21:00,
2013-02-11 04:26:00,38.5,0.0,29.87,North,0,0.0,0.0,0,0.00,,,0.00,WUHU216HW,2013-02-11 09:26:00,
2013-02-11 04:31:00,38.5,0.0,29.88,North,0,0.0,0.0,0,0.00,,,0.00,WUHU216HW,2013-02-11 09:31:00,
2013-02-11 04:36:00,38.3,0.0,29.87,North,0,0.0,0.0,0,0.00,,,0.00,WUHU216HW,2013-02-11 09:36:00,
2013-02-11 04:41:00,38.5,0.0,29.87,North,0,0.0,0.0,0,0.00,,,0.00,WUHU216HW,2013-02-11 09:41:00,
2013-02-11 04:46:00,38.5,0.0,29.87,North,0,0.0,0.0,0,0.00,,,0.00,WUHU216HW,2013-02-11 09:46:00,
2013-02-11 04:51:00,38.3,0.0,29.87,North,0,0.0,0.0,0,0.00,,,0.00,WUHU216HW,2013-02-11 09:51:00,
2013-02-11 04:56:00,38.3,0.0,29.86,North,0,0.0,0.0,0,0.11,,,0.11,WUHU216HW,2013-02-11 09:56:00,
2013-02-11 05:01:00,38.3,0.0,29.87,North,0,0.0,0.0,0,0.11,,,0.11,WUHU216HW,2013-02-11 10:01:00,
2013-02-11 05:06:00,38.3,0.0,29.87,North,0,0.0,0.0,0,0.13,,,0.13,WUHU216HW,2013-02-11 10:06:00,
2013-02-11 05:11:00,38.3,0.0,29.88,North,0,0.0,0.0,0,0.13,,,0.13,WUHU216HW,2013-02-11 10:11:00,
2013-02-11 05:16:00,38.3,0.0,29.88,North,0,0.0,0.0,0,0.13,,,0.13,WUHU216HW,2013-02-11 10:16:00,
2013-02-11 05:21:00,38.3,0.0,29.88,North,0,0.0,0.0,0,0.13,,,0.13,WUHU216HW,2013-02-11 10:21:00,
2013-02-11 05:26:00,38.3,0.0,29.88,North,0,0.0,0.0,0,0.13,,,0.13,WUHU216HW,2013-02-11 10:26:00,
2013-02-11 05:31:00,38.3,0.0,29.88,North,0,0.0,0.0,0,0.13,,,0.13,WUHU216HW,2013-02-11 10:31:00,
2013-02-11 05:36:00,38.3,0.0,29.87,North,0,0.0,0.0,0,0.13,,,0.13,WUHU216HW,2013-02-11 10:36:00,
2013-02-11 05:41:00,38.5,0.0,29.86,North,0,0.0,0.0,0,0.13,,,0.13,WUHU216HW,2013-02-11 10:41:00,
2013-02-11 05:46:00,38.3,0.0,29.85,North,0,0.0,0.0,0,0.13,,,0.13,WUHU216HW,2013-02-11 10:46:00,
2013-02-11 05:51:00,38.3,0.0,29.85,North,0,0.0,0.0,0,0.13,,,0.13,WUHU216HW,2013-02-11 10:51:00,
2013-02-11 05:56:00,38.3,0.0,29.85,North,0,0.0,0.0,0,0.02,,,0.13,WUHU216HW,2013-02-11 10:56:00,
2013-02-11 06:01:00,38.3,0.0,29.86,North,0,0.0,0.0,0,0.02,,,0.13,WUHU216HW,2013-02-11 11:01:00,
2013-02-11 06:06:00,38.5,0.0,29.87,North,0,0.0,0.0,0,0.00,,,0.13,WUHU216HW,2013-02-11 11:06:00,
2013-02-11 06:11:00,38.5,0.0,29.87,North,0,0.0,0.0,0,0.00,,,0.13,WUHU216HW,2013-02-11 11:11:00,
2013-02-11 06:16:00,38.5,0.0,29.87,North,0,0.0,0.0,0,0.00,,,0.13,WUHU216HW,2013-02-11 11:16:00,
2013-02-11 06:21:00,38.5,0.0,29.88,North,0,0.0,0.0,0,0.00,,,0.13,WUHU216HW,2013-02-11 11:21:00,
2013-02-11 06:26:00,38.7,0.0,29.87,North,0,0.0,0.0,0,0.00,,,0.13,WUHU216HW,2013-02-11 11:26:00,
2013-02-11 06:31:00,38.5,0.0,29.88,North,0,0.0,0.0,0,0.00,,,0.13,WUHU216HW,2013-02-11 11:31:00,
2013-02-11 06:36:00,38.5,0.0,29.87,North,0,0.0,0.0,0,0.00,,,0.13,WUHU216HW,2013-02-11 11:36:00,
2013-02-11 06:41:00,38.5,0.0,29.87,North,0,0.0,0.0,0,0.02,,,0.15,WUHU216HW,2013-02-11 11:41:00,
2013-02-11 06:46:00,38.7,0.0,29.87,North,0,0.0,0.0,0,0.02,,,0.15,WUHU216HW,2013-02-11 11:46:00,
2013-02-11 06:51:00,38.7,0.0,29.87,North,0,0.0,0.0,0,0.04,,,0.17,WUHU216HW,2013-02-11 11:51:00,
2013-02-11 06:56:00,38.9,0.0,29.86,North,0,0.0,0.0,0,0.04,,,0.17,WUHU216HW,2013-02-11 11:56:00,
2013-02-11 07:01:00,38.9,0.0,29.86,North,0,0.0,0.0,0,0.04,,,0.17,WUHU216HW,2013-02-11 12:01:00,
2013-02-11 07:06:00,39.1,0.0,29.85,North,0,0.0,0.0,0,0.04,,,0.17,WUHU216HW,2013-02-11 12:06:00,
2013-02-11 07:11:00,39.2,0.0,29.85,North,0,0.0,0.0,0,0.04,,,0.17,WUHU216HW,2013-02-11 12:11:00,
2013-02-11 07:16:00,39.2,0.0,29.84,North,0,0.0,0.0,0,0.04,,,0.17,WUHU216HW,2013-02-11 12:16:00,
2013-02-11 07:21:00,39.2,0.0,29.83,North,0,0.0,0.0,0,0.04,,,0.17,WUHU216HW,2013-02-11 12:21:00,
2013-02-11 07:26:00,39.2,0.0,29.83,North,0,0.0,0.0,0,0.04,,,0.17,WUHU216HW,2013-02-11 12:26:00,
2013-02-11 07:31:00,39.4,0.0,29.83,North,0,0.0,0.0,0,0.04,,,0.17,WUHU216HW,2013-02-11 12:31:00,
2013-02-11 07:36:00,39.4,0.0,29.83,North,0,0.0,0.0,0,0.04,,,0.17,WUHU216HW,2013-02-11 12:36:00,
2013-02-11 07:41:00,39.6,0.0,29.82,North,0,0.0,0.0,0,0.02,,,0.17,WUHU216HW,2013-02-11 12:41:00,
2013-02-11 07:46:00,39.6,0.0,29.82,North,0,0.0,0.0,0,0.00,,,0.17,WUHU216HW,2013-02-11 12:46:00,
2013-02-11 07:51:00,39.8,0.0,29.83,North,0,0.0,0.0,0,0.00,,,0.17,WUHU216HW,2013-02-11 12:51:00,
2013-02-11 07:56:00,40.0,0.0,29.83,North,0,0.0,0.0,0,0.00,,,0.17,WUHU216HW,2013-02-11 12:56:00,
2013-02-11 08:01:00,40.3,0.0,29.83,North,0,0.0,0.0,0,0.00,,,0.17,WUHU216HW,2013-02-11 13:01:00,
2013-02-11 08:06:00,40.5,0.0,29.84,North,0,0.0,0.0,0,0.00,,,0.17,WUHU216HW,2013-02-11 13:06:00,
2013-02-11 08:11:00,40.7,0.0,29.83,North,0,0.0,0.0,0,0.00,,,0.17,WUHU216HW,2013-02-11 13:11:00,
2013-02-11 08:16:00,40.9,0.0,29.84,North,0,0.0,0.0,0,0.00,,,0.17,WUHU216HW,2013-02-11 13:16:00,
2013-02-11 08:21:00,41.0,0.0,29.84,North,0,0.0,0.0,0,0.00,,,0.17,WUHU216HW,2013-02-11 13:21:00,
2013-02-11 08:26:00,41.0,0.0,29.84,North,0,0.0,0.0,0,0.00,,,0.17,WUHU216HW,2013-02-11 13:26:00,
2013-02-11 08:31:00,41.0,0.0,29.84,North,0,0.0,0.0,0,0.00,,,0.17,WUHU216HW,2013-02-11 13:31:00,
2013-02-11 08:36:00,41.2,0.0,29.84,North,0,0.0,0.0,0,0.00,,,0.17,WUHU216HW,2013-02-11 13:36:00,
2013-02-11 08:41:00,41.2,0.0,29.84,North,0,0.0,0.0,0,0.00,,,0.17,WUHU216HW,2013-02-11 13:41:00,
2013-02-11 08:46:00,41.4,0.0,29.84,North,0,0.0,0.0,0,0.00,,,0.17,WUHU216HW,2013-02-11 13:46:00,
2013-02-11 08:51:00,41.4,0.0,29.84,North,0,0.0,0.0,0,0.00,,,0.17,WUHU216HW,2013-02-11 13:51:00,
2013-02-11 08:56:00,41.2,0.0,29.84,North,0,0.0,0.0,0,0.00,,,0.17,WUHU216HW,2013-02-11 13:56:00,
2013-02-11 09:01:00,41.4,0.0,29.84,North,0,0.0,0.0,0,0.00,,,0.17,WUHU216HW,2013-02-11 14:01:00,
2013-02-11 09:06:00,41.6,0.0,29.84,North,0,0.0,0.0,0,0.00,,,0.17,WUHU216HW,2013-02-11 14:06:00,
2013-02-11 09:11:00,41.6,0.0,29.84,North,0,0.0,0.0,0,0.00,,,0.17,WUHU216HW,2013-02-11 14:11:00,
2013-02-11 09:16:00,41.6,0.0,29.84,North,0,0.0,0.0,0,0.00,,,0.17,WUHU216HW,2013-02-11 14:16:00,
2013-02-11 09:21:00,41.9,0.0,29.84,North,0,0.0,0.0,0,0.00,,,0.17,WUHU216HW,2013-02-11 14:21:00,
2013-02-11 09:26:00,42.1,0.0,29.84,North,0,0.0,0.0,0,0.00,,,0.17,WUHU216HW,2013-02-11 14:26:00,
2013-02-11 09:31:00,42.3,0.0,29.83,North,0,0.0,0.0,0,0.00,,,0.17,WUHU216HW,2013-02-11 14:31:00,
2013-02-11 09:36:00,42.5,0.0,29.84,North,0,0.0,0.0,0,0.00,,,0.17,WUHU216HW,2013-02-11 14:36:00,
2013-02-11 09:41:00,43.0,0.0,29.84,North,0,0.0,0.0,0,0.00,,,0.17,WUHU216HW,2013-02-11 14:41:00,
2013-02-11 09:46:00,43.2,0.0,29.84,North,0,0.0,0.0,0,0.00,,,0.17,WUHU216HW,2013-02-11 14:46:00,
2013-02-11 09:51:00,43.4,0.0,29.84,North,0,0.0,0.0,0,0.00,,,0.17,WUHU216HW,2013-02-11 14:51:00,
2013-02-11 09:56:00,43.7,0.0,29.84,North,0,0.0,0.0,0,0.00,,,0.17,WUHU216HW,2013-02-11 14:56:00,
2013-02-11 10:01:00,43.7,0.0,29.83,North,0,0.0,0.0,0,0.00,,,0.17,WUHU216HW,2013-02-11 15:01:00,
2013-02-11 10:06:00,43.9,0.0,29.83,North,0,0.0,0.0,0,0.00,,,0.17,WUHU216HW,2013-02-11 15:06:00,
2013-02-11 10:11:00,43.9,0.0,29.83,North,0,0.0,0.0,0,0.00,,,0.17,WUHU216HW,2013-02-11 15:11:00,
2013-02-11 10:16:00,44.3,0.0,29.82,North,0,0.0,0.0,0,0.00,,,0.17,WUHU216HW,2013-02-11 15:16:00,
2013-02-11 10:21:00,44.6,0.0,29.81,North,0,0.0,0.0,0,0.00,,,0.17,WUHU216HW,2013-02-11 15:21:00,
2013-02-11 10:26:00,44.8,0.0,29.81,North,0,0.0,0.0,0,0.00,,,0.17,WUHU216HW,2013-02-11 15:26:00,
2013-02-11 10:31:00,45.4,0.0,29.81,North,0,0.0,0.0,0,0.00,,,0.17,WUHU216HW,2013-02-11 15:31:00,
2013-02-11 10:36:00,45.5,0.0,29.80,North,0,0.0,0.0,0,0.00,,,0.17,WUHU216HW,2013-02-11 15:36:00,
2013-02-11 10:41:00,45.7,0.0,29.81,North,0,0.0,0.0,0,0.00,,,0.17,WUHU216HW,2013-02-11 15:41:00,
2013-02-11 10:46:00,45.9,0.0,29.81,North,0,0.0,0.0,0,0.00,,,0.17,WUHU216HW,2013-02-11 15:46:00,
2013-02-11 10:51:00,46.3,0.0,29.82,North,0,0.0,0.0,0,0.00,,,0.17,WUHU216HW,2013-02-11 15:51:00,
2013-02-11 10:56:00,46.4,0.0,29.82,North,0,0.0,0.0,0,0.00,,,0.17,WUHU216HW,2013-02-11 15:56:00,
2013-02-11 11:01:00,46.4,0.0,29.81,North,0,0.0,0.0,0,0.00,,,0.17,WUHU216HW,2013-02-11 16:01:00,
2013-02-11 11:06:00,46.4,0.0,29.81,North,0,0.0,0.0,0,0.00,,,0.17,WUHU216HW,2013-02-11 16:06:00,
2013-02-11 11:11:00,46.8,0.0,29.81,North,0,0.0,0.0,0,0.00,,,0.17,WUHU216HW,2013-02-11 16:11:00,
2013-02-11 11:16:00,47.2,0.0,29.81,North,0,0.0,0.0,0,0.00,,,0.17,WUHU216HW,2013-02-11 16:16:00,
2013-02-11 11:21:00,47.2,0.0,29.81,North,0,0.0,0.0,0,0.00,,,0.17,WUHU216HW,2013-02-11 16:21:00,
2013-02-11 11:26:00,47.2,0.0,29.80,North,0,0.0,0.0,0,0.00,,,0.17,WUHU216HW,2013-02-11 16:26:00,
2013-02-11 11:31:00,47.2,0.0,29.80,North,0,0.0,0.0,0,0.00,,,0.17,WUHU216HW,2013-02-11 16:31:00,
2013-02-11 11:36:00,47.2,0.0,29.80,North,0,0.0,0.0,0,0.00,,,0.17,WUHU216HW,2013-02-11 16:36:00,
2013-02-11 11:41:00,47.3,0.0,29.80,North,0,0.0,0.0,0,0.00,,,0.17,WUHU216HW,2013-02-11 16:41:00,
2013-02-11 11:46:00,47.5,0.0,29.79,North,0,0.0,0.0,0,0.00,,,0.17,WUHU216HW,2013-02-11 16:46:00,
2013-02-11 11:51:00,47.9,0.0,29.80,North,0,0.0,0.0,0,0.00,,,0.17,WUHU216HW,2013-02-11 16:51:00,
2013-02-11 11:56:00,47.9,0.0,29.79,North,0,0.0,0.0,0,0.00,,,0.17,WUHU216HW,2013-02-11 16:56:00,
2013-02-11 12:01:00,48.2,0.0,29.80,North,0,0.0,0.0,0,0.00,,,0.17,WUHU216HW,2013-02-11 17:01:00,
2013-02-11 12:06:00,48.4,0.0,29.79,North,0,0.0,0.0,0,0.00,,,0.17,WUHU216HW,2013-02-11 17:06:00,
2013-02-11 12:11:00,48.6,0.0,29.80,North,0,0.0,0.0,0,0.00,,,0.17,WUHU216HW,2013-02-11 17:11:00,
2013-02-11 12:16:00,48.4,0.0,29.80,North,0,0.0,0.0,0,0.00,,,0.17,WUHU216HW,2013-02-11 17:16:00,
2013-02-11 12:21:00,48.6,0.0,29.79,North,0,0.0,0.0,0,0.00,,,0.17,WUHU216HW,2013-02-11 17:21:00,
2013-02-11 12:26:00,48.6,0.0,29.78,North,0,0.0,0.0,0,0.00,,,0.17,WUHU216HW,2013-02-11 17:26:00,
2013-02-11 12:31:00,48.6,0.0,29.79,North,0,0.0,0.0,0,0.00,,,0.17,WUHU216HW,2013-02-11 17:31:00,
2013-02-11 12:36:00,48.6,0.0,29.79,North,0,0.0,0.0,0,0.00,,,0.17,WUHU216HW,2013-02-11 17:36:00,
2013-02-11 12:41:00,48.8,0.0,29.79,North,0,0.0,0.0,0,0.00,,,0.17,WUHU216HW,2013-02-11 17:41:00,
2013-02-11 12:46:00,49.0,0.0,29.78,North,0,0.0,0.0,0,0.00,,,0.17,WUHU216HW,2013-02-11 17:46:00,
2013-02-11 12:51:00,49.1,0.0,29.78,North,0,0.0,0.0,0,0.00,,,0.17,WUHU216HW,2013-02-11 17:51:00,
2013-02-11 12:56:00,49.3,0.0,29.78,North,0,0.0,0.0,0,0.00,,,0.17,WUHU216HW,2013-02-11 17:56:00,
2013-02-11 13:01:00,49.3,0.0,29.78,North,0,0.0,0.0,0,0.00,,,0.17,WUHU216HW,2013-02-11 18:01:00,
2013-02-11 13:06:00,49.5,0.0,29.77,North,0,0.0,0.0,0,0.00,,,0.17,WUHU216HW,2013-02-11 18:06:00,
2013-02-11 13:11:00,49.5,0.0,29.76,North,0,0.0,0.0,0,0.00,,,0.17,WUHU216HW,2013-02-11 18:11:00,
2013-02-11 13:16:00,49.7,0.0,29.75,North,0,0.0,0.0,0,0.00,,,0.17,WUHU216HW,2013-02-11 18:16:00,
2013-02-11 13:21:00,50.0,0.0,29.74,North,0,0.0,0.0,0,0.00,,,0.17,WUHU216HW,2013-02-11 18:21:00,
2013-02-11 13:26:00,50.2,0.0,29.73,North,0,0.0,0.0,0,0.00,,,0.17,WUHU216HW,2013-02-11 18:26:00,
2013-02-11 13:31:00,50.4,0.0,29.74,North,0,0.0,0.0,0,0.00,,,0.17,WUHU216HW,2013-02-11 18:31:00,
2013-02-11 13:36:00,50.8,0.0,29.73,North,0,0.0,0.0,0,0.00,,,0.17,WUHU216HW,2013-02-11 18:36:00,
2013-02-11 13:41:00,50.9,0.0,29.73,North,0,0.0,0.0,0,0.00,,,0.17,WUHU216HW,2013-02-11 18:41:00,
2013-02-11 13:46:00,51.3,0.0,29.73,North,0,0.0,0.0,0,0.00,,,0.17,WUHU216HW,2013-02-11 18:46:00,
2013-02-11 13:51:00,51.5,0.0,29.73,North,0,0.0,0.0,0,0.00,,,0.17,WUHU216HW,2013-02-11 18:51:00,
2013-02-11 13:56:00,52.0,0.0,29.73,North,0,0.0,0.0,0,0.00,,,0.17,WUHU216HW,2013-02-11 18:56:00,
2013-02-11 14:01:00,52.2,0.0,29.73,North,0,0.0,0.0,0,0.00,,,0.17,WUHU216HW,2013-02-11 19:01:00,
2013-02-11 14:06:00,52.4,0.0,29.73,North,0,0.0,0.0,0,0.00,,,0.17,WUHU216HW,2013-02-11 19:06:00,
2013-02-11 14:11:00,52.6,0.0,29.73,North,0,0.0,0.0,0,0.00,,,0.17,WUHU216HW,2013-02-11 19:11:00,
2013-02-11 14:16:00,52.6,0.0,29.74,North,0,0.0,0.0,0,0.00,,,0.17,WUHU216HW,2013-02-11 19:16:00,
2013-02-11 14:21:00,52.6,0.0,29.75,North,0,0.0,0.0,0,0.00,,,0.17,WUHU216HW,2013-02-11 19:21:00,
2013-02-11 14:26:00,52.6,0.0,29.75,North,0,0.0,0.0,0,0.00,,,0.17,WUHU216HW,2013-02-11 19:26:00,
2013-02-11 14:31:00,52.6,0.0,29.76,North,0,0.0,0.0,0,0.00,,,0.17,WUHU216HW,2013-02-11 19:31:00,
2013-02-11 14:36:00,52.6,0.0,29.75,North,0,0.0,0.0,0,0.00,,,0.17,WUHU216HW,2013-02-11 19:36:00,
2013-02-11 14:41:00,52.6,0.0,29.76,North,0,0.0,0.0,0,0.00,,,0.17,WUHU216HW,2013-02-11 19:41:00,
2013-02-11 14:46:00,0.0,0.0,29.76,North,0,0.0,0.0,0,0.00,,,0.17,WUHU216HW,2013-02-11 19:46:00,
2013-02-11 14:51:00,0.0,0.0,29.76,North,0,0.0,0.0,0,0.00,,,0.17,WUHU216HW,2013-02-11 19:51:00,
2013-02-11 14:56:00,0.0,0.0,29.75,North,0,0.0,0.0,0,0.00,,,0.17,WUHU216HW,2013-02-11 19:56:00,
2013-02-11 15:01:00,0.0,0.0,29.74,North,0,0.0,0.0,0,0.00,,,0.17,WUHU216HW,2013-02-11 20:01:00,
2013-02-11 15:06:00,0.0,0.0,29.73,North,0,0.0,0.0,0,0.00,,,0.17,WUHU216HW,2013-02-11 20:06:00,
2013-02-11 15:11:00,0.0,0.0,29.75,North,0,0.0,0.0,0,0.00,,,0.17,WUHU216HW,2013-02-11 20:11:00,
2013-02-11 15:16:00,0.0,0.0,29.75,North,0,0.0,0.0,0,0.00,,,0.17,WUHU216HW,2013-02-11 20:16:00,
2013-02-11 15:21:00,0.0,0.0,29.73,North,0,0.0,0.0,0,0.00,,,0.17,WUHU216HW,2013-02-11 20:21:00,
2013-02-11 15:26:00,0.0,0.0,29.73,North,0,0.0,0.0,0,0.00,,,0.17,WUHU216HW,2013-02-11 20:26:00,
2013-02-11 15:31:00,0.0,0.0,29.72,North,0,0.0,0.0,0,0.00,,,0.17,WUHU216HW,2013-02-11 20:31:00,
2013-02-11 15:36:00,0.0,0.0,29.73,North,0,0.0,0.0,0,0.00,,,0.17,WUHU216HW,2013-02-11 20:36:00,
2013-02-11 15:41:00,0.0,0.0,29.72,North,0,0.0,0.0,0,0.00,,,0.17,WUHU216HW,2013-02-11 20:41:00,
2013-02-11 15:46:00,0.0,0.0,29.72,North,0,0.0,0.0,0,0.00,,,0.17,WUHU216HW,2013-02-11 20:46:00,
2013-02-11 15:51:00,0.0,0.0,29.72,North,0,0.0,0.0,0,0.00,,,0.17,WUHU216HW,2013-02-11 20:51:00,
2013-02-11 15:56:00,0.0,0.0,29.72,North,0,0.0,0.0,0,0.00,,,0.17,WUHU216HW,2013-02-11 20:56:00,
2013-02-11 16:01:00,52.7,0.0,29.72,North,0,0.0,0.0,0,0.00,,,0.17,WUHU216HW,2013-02-11 21:01:00,
2013-02-11 16:06:00,52.9,0.0,29.73,North,0,0.0,0.0,0,0.00,,,0.17,WUHU216HW,2013-02-11 21:06:00,
2013-02-11 16:11:00,52.9,0.0,29.72,North,0,0.0,0.0,0,0.00,,,0.17,WUHU216HW,2013-02-11 21:11:00,
2013-02-11 16:16:00,52.9,0.0,29.72,North,0,0.0,0.0,0,0.00,,,0.17,WUHU216HW,2013-02-11 21:16:00,
2013-02-11 16:21:00,53.1,0.0,29.72,North,0,0.0,0.0,0,0.00,,,0.17,WUHU216HW,2013-02-11 21:21:00,
2013-02-11 16:26:00,53.1,0.0,29.72,North,0,0.0,0.0,0,0.00,,,0.17,WUHU216HW,2013-02-11 21:26:00,
2013-02-11 16:31:00,53.3,0.0,29.73,North,0,0.0,0.0,0,0.00,,,0.17,WUHU216HW,2013-02-11 21:31:00,
2013-02-11 16:36:00,53.5,0.0,29.73,North,0,0.0,0.0,0,0.00,,,0.17,WUHU216HW,2013-02-11 21:36:00,
2013-02-11 16:41:00,53.5,0.0,29.72,North,0,0.0,0.0,0,0.00,,,0.17,WUHU216HW,2013-02-11 21:41:00,
2013-02-11 16:46:00,53.6,0.0,29.73,North,0,0.0,0.0,0,0.00,,,0.17,WUHU216HW,2013-02-11 21:46:00,
2013-02-11 16:51:00,53.8,0.0,29.73,North,0,0.0,0.0,0,0.00,,,0.17,WUHU216HW,2013-02-11 21:51:00,
2013-02-11 16:56:00,53.8,0.0,29.73,North,0,0.0,0.0,0,0.00,,,0.17,WUHU216HW,2013-02-11 21:56:00,
2013-02-11 17:01:00,54.0,0.0,29.73,North,0,0.0,0.0,0,0.00,,,0.17,WUHU216HW,2013-02-11 22:01:00,
2013-02-11 17:06:00,54.0,0.0,29.73,North,0,0.0,0.0,0,0.00,,,0.17,WUHU216HW,2013-02-11 22:06:00,
2013-02-11 17:11:00,54.4,0.0,29.73,North,0,0.0,0.0,0,0.00,,,0.17,WUHU216HW,2013-02-11 22:11:00,
2013-02-11 17:16:00,54.4,0.0,29.73,North,0,0.0,0.0,0,0.00,,,0.17,WUHU216HW,2013-02-11 22:16:00,
2013-02-11 17:21:00,54.4,0.0,29.72,North,0,0.0,0.0,0,0.00,,,0.17,WUHU216HW,2013-02-11 22:21:00,
2013-02-11 17:26:00,54.4,0.0,29.72,North,0,0.0,0.0,0,0.00,,,0.17,WUHU216HW,2013-02-11 22:26:00,
2013-02-11 17:31:00,54.4,0.0,29.73,North,0,0.0,0.0,0,0.00,,,0.17,WUHU216HW,2013-02-11 22:31:00,
2013-02-11 17:36:00,54.4,0.0,29.73,North,0,0.0,0.0,0,0.00,,,0.17,WUHU216HW,2013-02-11 22:36:00,
2013-02-11 17:41:00,54.4,0.0,29.73,North,0,0.0,0.0,0,0.00,,,0.17,WUHU216HW,2013-02-11 22:41:00,
2013-02-11 17:46:00,54.2,0.0,29.72,North,0,0.0,0.0,0,0.00,,,0.17,WUHU216HW,2013-02-11 22:46:00,
2013-02-11 17:51:00,54.2,0.0,29.72,North,0,0.0,0.0,0,0.00,,,0.17,WUHU216HW,2013-02-11 22:51:00,
2013-02-11 17:56:00,54.2,0.0,29.72,North,0,0.0,0.0,0,0.00,,,0.17,WUHU216HW,2013-02-11 22:56:00,
2013-02-11 18:01:00,54.0,0.0,29.72,North,0,0.0,0.0,0,0.00,,,0.17,WUHU216HW,2013-02-11 23:01:00,
2013-02-11 18:06:00,54.0,0.0,29.72,North,0,0.0,0.0,0,0.00,,,0.17,WUHU216HW,2013-02-11 23:06:00,
2013-02-11 18:11:00,54.0,0.0,29.72,North,0,0.0,0.0,0,0.00,,,0.17,WUHU216HW,2013-02-11 23:11:00,
2013-02-11 18:16:00,54.0,0.0,29.73,North,0,0.0,0.0,0,0.00,,,0.17,WUHU216HW,2013-02-11 23:16:00,
2013-02-11 18:21:00,54.0,0.0,29.72,North,0,0.0,0.0,0,0.00,,,0.17,WUHU216HW,2013-02-11 23:21:00,
2013-02-11 18:26:00,54.0,0.0,29.73,North,0,0.0,0.0,0,0.00,,,0.17,WUHU216HW,2013-02-11 23:26:00,
2013-02-11 18:31:00,54.0,0.0,29.73,North,0,0.0,0.0,0,0.00,,,0.17,WUHU216HW,2013-02-11 23:31:00,
2013-02-11 18:36:00,54.0,0.0,29.73,North,0,0.0,0.0,0,0.00,,,0.17,WUHU216HW,2013-02-11 23:36:00,
2013-02-11 18:41:00,54.0,0.0,29.74,North,0,0.0,0.0,0,0.00,,,0.17,WUHU216HW,2013-02-11 23:41:00,
2013-02-11 18:46:00,54.0,0.0,29.72,North,0,0.0,0.0,0,0.00,,,0.17,WUHU216HW,2013-02-11 23:46:00,
2013-02-11 18:51:00,54.0,0.0,29.73,North,0,0.0,0.0,0,0.00,,,0.17,WUHU216HW,2013-02-11 23:51:00,
2013-02-11 18:56:00,54.0,0.0,29.73,North,0,0.0,0.0,0,0.00,,,0.17,WUHU216HW,2013-02-11 23:56:00,
2013-02-11 19:01:00,53.8,0.0,29.74,North,0,0.0,0.0,0,0.00,,,0.17,WUHU216HW,2013-02-12 00:01:00,
2013-02-11 19:06:00,53.8,0.0,29.74,North,0,0.0,0.0,0,0.00,,,0.17,WUHU216HW,2013-02-12 00:06:00,
2013-02-11 19:11:00,53.8,0.0,29.74,North,0,0.0,0.0,0,0.00,,,0.17,WUHU216HW,2013-02-12 00:11:00,
2013-02-11 19:16:00,53.8,0.0,29.74,North,0,0.0,0.0,0,0.00,,,0.17,WUHU216HW,2013-02-12 00:16:00,
2013-02-11 19:21:00,53.8,0.0,29.74,North,0,0.0,0.0,0,0.00,,,0.17,WUHU216HW,2013-02-12 00:21:00,
2013-02-11 19:26:00,53.8,0.0,29.75,North,0,0.0,0.0,0,0.00,,,0.17,WUHU216HW,2013-02-12 00:26:00,
2013-02-11 19:31:00,53.8,0.0,29.74,North,0,0.0,0.0,0,0.00,,,0.17,WUHU216HW,2013-02-12 00:31:00,
2013-02-11 19:36:00,53.6,0.0,29.74,North,0,0.0,0.0,0,0.00,,,0.17,WUHU216HW,2013-02-12 00:36:00,
2013-02-11 19:41:00,53.8,0.0,29.74,North,0,0.0,0.0,0,0.00,,,0.17,WUHU216HW,2013-02-12 00:41:00,
2013-02-11 19:46:00,53.6,0.0,29.75,North,0,0.0,0.0,0,0.00,,,0.17,WUHU216HW,2013-02-12 00:46:00,
2013-02-11 19:51:00,53.6,0.0,29.75,North,0,0.0,0.0,0,0.00,,,0.17,WUHU216HW,2013-02-12 00:51:00,
2013-02-11 19:56:00,53.6,0.0,29.75,North,0,0.0,0.0,0,0.00,,,0.17,WUHU216HW,2013-02-12 00:56:00,
2013-02-11 20:01:00,53.6,0.0,29.75,North,0,0.0,0.0,0,0.00,,,0.17,WUHU216HW,2013-02-12 01:01:00,
2013-02-11 20:06:00,53.6,0.0,29.75,North,0,0.0,0.0,0,0.00,,,0.17,WUHU216HW,2013-02-12 01:06:00,
2013-02-11 20:11:00,53.6,0.0,29.74,North,0,0.0,0.0,0,0.00,,,0.17,WUHU216HW,2013-02-12 01:11:00,
2013-02-11 20:16:00,53.6,0.0,29.75,North,0,0.0,0.0,0,0.00,,,0.17,WUHU216HW,2013-02-12 01:16:00,
2013-02-11 20:21:00,53.6,0.0,29.75,North,0,0.0,0.0,0,0.00,,,0.17,WUHU216HW,2013-02-12 01:21:00,
2013-02-11 20:26:00,53.6,0.0,29.74,North,0,0.0,0.0,0,0.00,,,0.17,WUHU216HW,2013-02-12 01:26:00,
2013-02-11 20:31:00,53.6,0.0,29.75,North,0,0.0,0.0,0,0.00,,,0.17,WUHU216HW,2013-02-12 01:31:00,
2013-02-11 20:36:00,53.5,0.0,29.75,North,0,0.0,0.0,0,0.00,,,0.17,WUHU216HW,2013-02-12 01:36:00,
2013-02-11 20:41:00,53.5,0.0,29.75,North,0,0.0,0.0,0,0.00,,,0.17,WUHU216HW,2013-02-12 01:41:00,
2013-02-11 20:46:00,53.5,0.0,29.74,North,0,0.0,0.0,0,0.00,,,0.17,WUHU216HW,2013-02-12 01:46:00,
2013-02-11 20:51:00,53.5,0.0,29.74,North,0,0.0,0.0,0,0.02,,,0.19,WUHU216HW,2013-02-12 01:51:00,
2013-02-11 20:56:00,53.3,0.0,29.74,North,0,0.0,0.0,0,0.02,,,0.19,WUHU216HW,2013-02-12 01:56:00,
2013-02-11 21:01:00,53.3,0.0,29.74,North,0,0.0,0.0,0,0.02,,,0.19,WUHU216HW,2013-02-12 02:01:00,
2013-02-11 21:06:00,53.3,0.0,29.74,North,0,0.0,0.0,0,0.02,,,0.19,WUHU216HW,2013-02-12 02:06:00,
2013-02-11 21:11:00,53.3,0.0,29.74,North,0,0.0,0.0,0,0.02,,,0.19,WUHU216HW,2013-02-12 02:11:00,
2013-02-11 21:16:00,53.1,0.0,29.73,North,0,0.0,0.0,0,0.02,,,0.19,WUHU216HW,2013-02-12 02:16:00,
2013-02-11 21:21:00,52.9,0.0,29.74,North,0,0.0,0.0,0,0.02,,,0.19,WUHU216HW,2013-02-12 02:21:00,
2013-02-11 21:26:00,52.9,0.0,29.74,North,0,0.0,0.0,0,0.02,,,0.19,WUHU216HW,2013-02-12 02:26:00,
2013-02-11 21:31:00,52.9,0.0,29.74,North,0,0.0,0.0,0,0.02,,,0.19,WUHU216HW,2013-02-12 02:31:00,
2013-02-11 21:36:00,52.7,0.0,29.74,North,0,0.0,0.0,0,0.02,,,0.19,WUHU216HW,2013-02-12 02:36:00,
2013-02-11 21:41:00,52.7,0.0,29.74,North,0,0.0,0.0,0,0.02,,,0.19,WUHU216HW,2013-02-12 02:41:00,
2013-02-11 21:46:00,52.7,0.0,29.74,North,0,0.0,0.0,0,0.00,,,0.19,WUHU216HW,2013-02-12 02:46:00,
2013-02-11 21:51:00,52.6,0.0,29.74,North,0,0.0,0.0,0,0.00,,,0.19,WUHU216HW,2013-02-12 02:51:00,
2013-02-11 21:56:00,52.4,0.0,29.74,North,0,0.0,0.0,0,0.00,,,0.19,WUHU216HW,2013-02-12 02:56:00,
2013-02-11 22:01:00,52.2,0.0,29.74,North,0,0.0,0.0,0,0.00,,,0.19,WUHU216HW,2013-02-12 03:01:00,
2013-02-11 22:06:00,52.2,0.0,29.74,North,0,0.0,0.0,0,0.00,,,0.19,WUHU216HW,2013-02-12 03:06:00,
2013-02-11 22:11:00,52.2,0.0,29.74,North,0,0.0,0.0,0,0.00,,,0.19,WUHU216HW,2013-02-12 03:11:00,
2013-02-11 22:16:00,52.0,0.0,29.74,North,0,0.0,0.0,0,0.00,,,0.19,WUHU216HW,2013-02-12 03:16:00,
2013-02-11 22:21:00,51.8,0.0,29.74,North,0,0.0,0.0,0,0.00,,,0.19,WUHU216HW,2013-02-12 03:21:00,
2013-02-11 22:26:00,51.7,0.0,29.74,North,0,0.0,0.0,0,0.00,,,0.19,WUHU216HW,2013-02-12 03:26:00,
2013-02-11 22:31:00,51.7,0.0,29.74,North,0,0.0,0.0,0,0.00,,,0.19,WUHU216HW,2013-02-12 03:31:00,
2013-02-11 22:36:00,51.5,0.0,29.74,North,0,0.0,0.0,0,0.00,,,0.19,WUHU216HW,2013-02-12 03:36:00,
2013-02-11 22:41:00,51.3,0.0,29.74,North,0,0.0,0.0,0,0.00,,,0.19,WUHU216HW,2013-02-12 03:41:00,
2013-02-11 22:46:00,51.1,0.0,29.75,North,0,0.0,0.0,0,0.00,,,0.19,WUHU216HW,2013-02-12 03:46:00,
2013-02-11 22:51:00,51.1,0.0,29.75,North,0,0.0,0.0,0,0.00,,,0.19,WUHU216HW,2013-02-12 03:51:00,
2013-02-11 22:56:00,51.1,0.0,29.75,North,0,0.0,0.0,0,0.00,,,0.19,WUHU216HW,2013-02-12 03:56:00,
2013-02-11 23:01:00,50.9,0.0,29.75,North,0,0.0,0.0,0,0.00,,,0.19,WUHU216HW,2013-02-12 04:01:00,
2013-02-11 23:06:00,50.8,0.0,29.75,North,0,0.0,0.0,0,0.00,,,0.19,WUHU216HW,2013-02-12 04:06:00,
2013-02-11 23:11:00,50.6,0.0,29.75,North,0,0.0,0.0,0,0.00,,,0.19,WUHU216HW,2013-02-12 04:11:00,
2013-02-11 23:16:00,50.6,0.0,29.75,North,0,0.0,0.0,0,0.00,,,0.19,WUHU216HW,2013-02-12 04:16:00,
2013-02-11 23:21:00,50.6,0.0,29.75,North,0,0.0,0.0,0,0.00,,,0.19,WUHU216HW,2013-02-12 04:21:00,
2013-02-11 23:26:00,50.6,0.0,29.75,North,0,0.0,0.0,0,0.00,,,0.19,WUHU216HW,2013-02-12 04:26:00,
2013-02-11 23:31:00,50.6,0.0,29.75,North,0,0.0,0.0,0,0.00,,,0.19,WUHU216HW,2013-02-12 04:31:00,
2013-02-11 23:36:00,50.4,0.0,29.75,North,0,0.0,0.0,0,0.00,,,0.19,WUHU216HW,2013-02-12 04:36:00,
2013-02-11 23:41:00,50.2,0.0,29.75,North,0,0.0,0.0,0,0.00,,,0.19,WUHU216HW,2013-02-12 04:41:00,
2013-02-11 23:46:00,50.2,0.0,29.75,North,0,0.0,0.0,0,0.00,,,0.19,WUHU216HW,2013-02-12 04:46:00,
2013-02-11 23:51:00,50.0,0.0,29.75,North,0,0.0,0.0,0,0.00,,,0.19,WUHU216HW,2013-02-12 04:51:00,
2013-02-11 23:56:00,49.9,0.0,29.75,North,0,0.0,0.0,0,0.00,,,0.19,WUHU216HW,2013-02-12 04:56:00,